This is the latest recevied weather packets stored in our database for station/object KE1THD. If no packets are shown the sender has not sent any weather packets the latest 10 day(s).
| Time | Temp. | Humidity | Pressure | Rain* | Wind** | Luminosity | Snow |
|---|---|---|---|---|---|---|---|
| 1777731677 | 10.56° C | 53% | 1020.7 hPa | 0 mm | - | 522 W/m² | - |
| 1777731375 | 10.56° C | 57% | 1020.7 hPa | 0 mm | - | 513 W/m² | - |
| 1777731072 | 11.11° C | 59% | 1020.5 hPa | 0 mm | - | 491 W/m² | - |
| 1777730771 | 10° C | 59% | 1020.6 hPa | 0 mm | - | 464 W/m² | - |
| 1777730467 | 10.56° C | 59% | 1020.6 hPa | 0 mm | - | 413 W/m² | - |
| 1777730163 | 10.56° C | 58% | 1020.7 hPa | 0 mm | - | 392 W/m² | - |
| 1777729860 | 10° C | 63% | 1020.6 hPa | 0 mm | - | 378 W/m² | - |
| 1777729556 | 9.44° C | 64% | 1020.4 hPa | 0 mm | - | 356 W/m² | - |
| 1777729253 | 8.89° C | 65% | 1020.5 hPa | 0 mm | - | 305 W/m² | - |
| 1777728950 | 8.89° C | 64% | 1020.6 hPa | 0 mm | - | 322 W/m² | - |
| 1777728647 | 8.89° C | 65% | 1020.6 hPa | 0 mm | - | 314 W/m² | - |
| 1777728344 | 8.89° C | 67% | 1020.7 hPa | 0 mm | - | 282 W/m² | - |
| 1777728041 | 8.33° C | 68% | 1020.4 hPa | 0 mm | - | 251 W/m² | - |
| 1777727737 | 7.78° C | 69% | 1020.5 hPa | 0 mm | - | 65 W/m² | - |
| 1777727434 | 7.78° C | 70% | 1020.4 hPa | 0 mm | - | 55 W/m² | - |
| 1777727132 | 7.22° C | 71% | 1020.5 hPa | 0 mm | - | 195 W/m² | - |
| 1777726830 | 6.67° C | 72% | 1020.3 hPa | 0 mm | - | 52 W/m² | - |
| 1777726526 | 6.11° C | 74% | 1020.3 hPa | 0 mm | - | 58 W/m² | - |
| 1777726223 | 6.11° C | 76% | 1020.3 hPa | 0 mm | - | 48 W/m² | - |
| 1777725920 | 5.56° C | 78% | 1020.5 hPa | 0 mm | - | 58 W/m² | - |
| 1777725617 | 5° C | 80% | 1020.3 hPa | 0 mm | - | 58 W/m² | - |
| 1777725315 | 5° C | 82% | 1020.3 hPa | 0 mm | - | 42 W/m² | - |
| 1777725012 | 4.44° C | 84% | 1020.4 hPa | 0 mm | - | 41 W/m² | - |
| 1777724708 | 3.89° C | 87% | 1020.5 hPa | 0 mm | - | 39 W/m² | - |
| 1777724406 | 3.33° C | 89% | 1020.3 hPa | 0 mm | - | 39 W/m² | - |
* Rain latest hour (hover to see other rain measurements)
** Current wind speed in m/s (hover to see current wind gust speed)